Home > Weather > Nampula > Past weeks

Flag for Mozambique Past Weather in Nampula, Mozambique — Yesterday and Last 2 Weeks

Now
79 °F

Clear.


Feels Like: 80 °F
Forecast: 57 / 86 °F
Wind: 7 mph from East

Location: Nampula Airport

Current Time: Jul 29, 2016 at 7:59:18 PM

Latest Report: Jul 29, 2016 at 7:00 PM


Visibility: 10 mi

Pressure: 29.98 "Hg

Humidity: 54%

Dew Point: 61 °F

Location of NampulaLocation

Past Weather in Nampula — Graph

°F

Nampula Temperature Yesterday

Maximum temperature yesterday: 86 °F (at 2:00 PM)
Minimum temperature yesterday: 66 °F (at 5:00 AM)
Average temperature yesterday: 75 °F

High & Low Weather Summary for the Past Weeks

 TemperatureHumidityPressure
High91 °F (Jul 29, 2:00 PM)100% (Jul 15, 7:00 AM)30.24 "Hg (Jul 15, 7:00 AM)
Low59 °F (Jul 21, 5:00 AM)40% (Jul 29, 12:00 PM)29.89 "Hg (Jul 29, 2:00 PM)
Average72 °F73%30.11 "Hg
* Reported Jul 14 5:00 PM — Jul 29 5:00 PM, Nampula, Weather by CustomWeather, © 2016

Note: Actual official high and low records may vary slightly from our data, if they occured in-between our weather recording intervals... More about our weather records

Advertising

Nampula Weather History for the Previous 24 Hours

Scroll right to see more
 ConditionsComfort  
Time TempWeatherWind HumidityBarometerVisibility
5:00 PM
Fri, Jul 29
84 °FSunny.5 mph45%29.98 "Hg10 mi
4:00 PM86 °FPassing clouds.5 mph43%29.98 "HgN/A
3:00 PM86 °FPassing clouds.7 mph46%29.98 "HgN/A
2:00 PM91 °FSunny.5 mph41%29.89 "Hg10 mi
12:00 PM84 °FPassing clouds.6 mph40%30.01 "HgN/A
11:00 AM82 °FSunny.7 mph45%30.04 "Hg10 mi
10:00 AM81 °FSunny.7 mph51%30.07 "Hg10 mi
9:00 AM75 °FSunny.7 mph61%30.07 "Hg10 mi
8:00 AM72 °FSunny.N/A69%30.07 "Hg10 mi
7:00 AM66 °FSunny.N/A94%30.07 "Hg10 mi
5:00 AM64 °FClear.N/A100%30.04 "Hg10 mi
1:00 AM68 °FClear.N/A83%30.04 "Hg10 mi
12:00 AM68 °FClear.N/A83%30.07 "Hg10 mi
11:00 PM
Thu, Jul 28
70 °FClear.N/A83%30.07 "Hg10 mi
10:00 PM70 °FClear.N/A83%30.07 "Hg10 mi
9:00 PM72 °FClear.N/A78%30.07 "Hg10 mi
8:00 PM73 °FClear.8 mph69%30.07 "Hg10 mi
7:00 PM75 °FClear.7 mph57%30.04 "Hg10 mi
Weather by CustomWeather, © 2016

See weather overviewHow to use our weather pages